Content
SEND FEEDBACK

Daily
Averages
Monthly
Summary
United Kingdom

SAFFRON WALDEN, ENGLAND


Home > Europe > United Kingdom > England
Elevation: 326 feet     Latitude: 51 58N     Longitude: 000 31E

WEATHER
 
SELECT A DAY
Number of Records: 297,729;   Date Range: 7/1/96 - 9/22/14
 
SHARE

PRINT THIS DATA

[ ← Previous Day ]
WEATHER ALMANAC - DECEMBER 25, 2013
[ Next Day → ]
[ °C ]   °F
Weather ElementAverageHighLow
Temperature37.7 °F42.8 °F (11:50 am)35.6 °F (5:20 am)
Dewpoint34.8 °F39.2 °F (12:20 pm)32 °F (7:20 am)
Humidity89.3 %93 % (12:50 am)81 % (10:50 am)
Barometer29.07 in29.18 in (8:50 pm)28.91 in (12:50 am)
Wind Speed8.2 mph12.7 mph (1:50 pm)
Weather ElementAverage
Visibility6.2 mi
Wind DirectionSSE (172.3 °)

Weather ElementTotal
Precipitation---
Heating Degree Days25.8 (Base 65)
Averaged from 47 records on December 25, 2013
WEATHER CONDITIONS BREAKOUT
WIND DIRECTION BREAKOUT
WEATHER BY HOUR - DECEMBER 25, 2013
[ °C ]   °F
Local TimeTemperatureDewpointHumidityBarometerVisibilityWind DirectionWind SpeedGust SpeedPrecipitationEventsConditions
12:50 AM39.2 °F37.4 °F93 %28.91 in6.2 miSSW (200°)5.8 mphScattered Clouds
1:20 AM39.2 °F35.6 °F87 %28.91 in6.2 miSW (230°)6.9 mphMostly Cloudy
1:50 AM39.2 °F37.4 °F93 %28.94 in6.2 miSW (220°)11.5 mphOvercast
2:20 AM37.4 °F35.6 °F93 %28.94 inSSW (210°)10.4 mphClear
2:50 AM37.4 °F35.6 °F93 %28.94 in6.2 miSSW (210°)11.5 mphPartly Cloudy
3:20 AM37.4 °F35.6 °F93 %28.94 inSSW (210°)11.5 mphClear
3:50 AM37.4 °F33.8 °F87 %28.97 inSSW (210°)10.4 mphClear
4:20 AM37.4 °F33.8 °F87 %28.97 in6.2 miSSW (200°)11.5 mph
4:50 AM37.4 °F33.8 °F87 %28.97 inSouth (190°)10.4 mphClear
5:20 AM35.6 °F33.8 °F93 %28.97 inSSW (210°)9.2 mphClear
5:50 AM35.6 °F33.8 °F93 %29.00 inSSW (200°)10.4 mphClear
6:20 AM35.6 °F33.8 °F93 %29.00 inSouth (190°)10.4 mphClear
6:50 AM35.6 °F33.8 °F93 %29.00 inSouth (190°)11.5 mphClear
7:20 AM35.6 °F32.0 °F87 %29.00 inSouth (190°)8.1 mphClear
7:50 AM35.6 °F32.0 °F87 %29.03 inSouth (180°)9.2 mphClear
8:20 AM35.6 °F32.0 °F87 %29.03 inSSW (200°)8.1 mphClear
8:50 AM35.6 °F33.8 °F93 %29.06 inSSW (200°)10.4 mphClear
9:20 AM37.4 °F33.8 °F87 %29.06 inSSW (200°)10.4 mphClear
9:50 AM37.4 °F33.8 °F87 %29.06 inSSW (200°)11.5 mphClear
10:20 AM39.2 °F35.6 °F87 %29.06 in6.2 miSSW (200°)10.4 mphPartly Cloudy
10:50 AM41.0 °F35.6 °F81 %29.09 in6.2 miSSW (200°)10.4 mphPartly Cloudy
11:20 AM41.0 °F37.4 °F87 %29.09 in6.2 miSSW (210°)9.2 mphPartly Cloudy
11:50 AM42.8 °F37.4 °F81 %29.06 in6.2 miSSW (200°)9.2 mphPartly Cloudy
12:20 PM42.8 °F39.2 °F87 %29.06 in6.2 miSW (230°)10.4 mphPartly Cloudy
12:50 PM42.8 °F37.4 °F81 %29.06 in6.2 miSSW (210°)10.4 mphPartly Cloudy
1:20 PM42.8 °F37.4 °F81 %29.06 in6.2 miSSW (200°)10.4 mphPartly Cloudy
1:50 PM41.0 °F35.6 °F81 %29.09 in6.2 miSW (220°)12.7 mphPartly Cloudy
2:20 PM39.2 °F35.6 °F87 %29.09 in6.2 miSSW (200°)6.9 mphPartly Cloudy
2:50 PM41.0 °F37.4 °F87 %29.09 in6.2 miSouth (190°)5.8 mphPartly Cloudy
3:20 PM39.2 °F35.6 °F87 %29.12 inSSE (150°)5.8 mphClear
3:50 PM39.2 °F35.6 °F87 %29.12 inSSE (150°)8.1 mphClear
4:20 PM39.2 °F35.6 °F87 %29.15 inSSE (160°)8.1 mphClear
4:50 PM37.4 °F33.8 °F87 %29.15 inSSE (160°)5.8 mphClear
5:20 PM37.4 °F33.8 °F87 %29.15 inSE (130°)5.8 mphClear
5:50 PM35.6 °F33.8 °F93 %29.15 inSE (130°)5.8 mphClear
6:20 PM35.6 °F33.8 °F93 %29.15 inESE (120°)5.8 mphClear
6:50 PM35.6 °F33.8 °F93 %29.15 inSE (130°)5.8 mphClear
7:20 PM35.6 °F33.8 °F93 %29.15 inSE (140°)4.6 mphClear
7:50 PM35.6 °F33.8 °F93 %29.15 inSE (140°)5.8 mphClear
8:20 PM35.6 °F33.8 °F93 %29.15 inSE (140°)5.8 mphClear
8:50 PM35.6 °F33.8 °F93 %29.18 in6.2 miSE (130°)5.8 mphPartly Cloudy
9:20 PM35.6 °F33.8 °F93 %29.18 inSE (130°)6.9 mphClear
9:50 PM35.6 °F33.8 °F93 %29.18 inSE (130°)5.8 mphClear
10:20 PM35.6 °F33.8 °F93 %29.18 inSE (130°)6.9 mphClear
10:50 PM35.6 °F33.8 °F93 %29.18 in6.2 miSE (130°)4.6 mphPartly Cloudy
11:20 PM35.6 °F33.8 °F93 %29.18 inCalmClear
11:50 PM35.6 °F33.8 °F93 %29.18 inVariable2.3 mphClear
Hourly data recorded from EGSS, located miles away from Saffron Walden, England







STORIES FROM OUR PARTNERS